This is the latest recevied weather packets stored in our database for station/object N3FYI-5. If no packets are shown the sender has not sent any weather packets the latest 10 day(s).
| Time | Temp. | Humidity | Pressure | Rain* | Wind** | Luminosity | Snow |
|---|---|---|---|---|---|---|---|
| 1777514304 | 9.44° C | 51% | 1015.7 hPa | 0 mm | - | - | - |
| 1777513825 | 9.44° C | 51% | 1015.7 hPa | 0 mm | - | - | - |
| 1777512999 | 9.44° C | 51% | 1015.7 hPa | 0 mm | - | - | - |
| 1777512519 | 9.44° C | 51% | 1015.6 hPa | 0 mm | - | - | - |
| 1777512040 | 9.44° C | 51% | 1015.7 hPa | 0.25 mm | - | - | - |
| 1777511560 | 9.44° C | 51% | 1015.6 hPa | 0.25 mm | - | - | - |
| 1777511080 | 9.44° C | 51% | 1015.6 hPa | 0.25 mm | - | - | - |
| 1777510600 | 9.44° C | 51% | 1015.5 hPa | 0.51 mm | - | - | - |
| 1777510120 | 9.44° C | 51% | 1015.6 hPa | 1.78 mm | - | - | - |
| 1777509641 | 9.44° C | 51% | 1015.4 hPa | 1.78 mm | - | - | - |
| 1777509161 | 9.44° C | 51% | 1015.2 hPa | 2.03 mm | - | - | - |
| 1777508679 | 9.44° C | 51% | 1015.3 hPa | 2.03 mm | - | - | - |
| 1777508208 | 9.44° C | 51% | 1015.3 hPa | 2.03 mm | - | - | - |
| 1777507720 | 9.44° C | 51% | 1015.3 hPa | 2.03 mm | - | - | - |
| 1777507239 | 9.44° C | 51% | 1015.6 hPa | 2.03 mm | - | - | - |
| 1777506759 | 9.44° C | 51% | 1015.8 hPa | 0.76 mm | - | - | - |
| 1777506279 | 9.44° C | 51% | 1015.5 hPa | 0.76 mm | - | - | - |
| 1777505799 | 9.44° C | 51% | 1015.3 hPa | 1.02 mm | - | - | - |
| 1777505320 | 9.44° C | 51% | 1015.1 hPa | 1.27 mm | - | - | - |
| 1777504839 | 9.44° C | 51% | 1015 hPa | 1.52 mm | - | - | - |
| 1777504361 | 9.44° C | 51% | 1014.9 hPa | 1.52 mm | - | - | - |
| 1777503879 | 9.44° C | 51% | 1014.8 hPa | 1.78 mm | - | - | - |
| 1777503401 | 9.44° C | 51% | 1014.8 hPa | 2.29 mm | - | - | - |
| 1777502919 | 9.44° C | 51% | 1014.7 hPa | 2.79 mm | - | - | - |
| 1777502439 | 9.44° C | 51% | 1014.3 hPa | 3.56 mm | - | - | - |
* Rain latest hour (hover to see other rain measurements)
** Current wind speed in m/s (hover to see current wind gust speed)